This demonstration page uses our WeatherBlox Daily Observations layout. Learn more.

Left ArrowRight Arrow

38.20091, -84.87328

Hourly Observations for January 4, 2016

Temp ( °F °C ) Dew Point ( °F °C ) Humidity (%) Winds ( mph kmh ) Pressure ( in mb ) Visibility ( mi km ) Precip ( " mm )
12:53 am 00:53 Cloudy 33 0.6 21 -6.1 61 61 NNW 7 11 30.18 1022 10 16 0.00 0.00
1:45 am 01:45 Cloudy 32 0 23 -5 69 69 NW 8 13 30.21 1023 10 16 0.00 0.00
1:53 am 01:53 Cloudy 32 0 24 -4.4 73 73 WNW 8 13 30.17 1022 10 16 0.00 0.00
2:11 am 02:11 Cloudy 32 0 23 -5 69 69 NNW 10 17 30.21 1023 10 16 0.00 0.00
2:53 am 02:53 Cloudy 32 0 22 -5.6 66 66 NW 9 15 30.18 1022 10 16 0.00 0.00
3:53 am 03:53 Cloudy 31 -0.6 19 -7.2 61 61 NW 8 13 30.20 1023 10 16 0.00 0.00
4:53 am 04:53 Cloudy 31 -0.6 22 -5.6 69 69 NW 8 13 30.21 1023 10 16 0.00 0.00
5:53 am 05:53 Cloudy 31 -0.6 23 -5 72 72 NW 13 20 30.23 1024 10 16 0.00 0.00
6:53 am 06:53 Cloudy 30 -1.1 21 -6.1 69 69 NNW 10 17 30.27 1025 10 16 0.00 0.00
7:46 am 07:46 Cloudy 30 -1.1 22 -5.6 72 72 NNW 8 13 30.33 1027 10 16 0.00 0.00
7:53 am 07:53 Cloudy 30 -1.1 22 -5.6 72 72 NW 13 20 30.29 1026 10 16 0.00 0.00
8:03 am 08:03 Cloudy with Light Snow 30 -1.1 22 -5.6 72 72 NNW 13 20 30.33 1027 7 11 0.00 0.03
8:53 am 08:53 Cloudy 30 -1.1 21 -6.1 69 69 NW 6 9 30.32 1027 10 16 0.00 0.03
9:53 am 09:53 Cloudy 31 -0.6 21 -6.1 67 67 NNW 16 26 30.35 1028 10 16 0.00 0.00
10:53 am 10:53 Cloudy 31 -0.6 21 -6.1 67 67 NNW 12 19 30.38 1029 10 16 0.00 0.00
11:02 am 11:02 Cloudy 31 -0.6 21 -6.1 67 67 NNW 9 15 30.42 1030 10 16 0.00 0.00
11:26 am 11:26 Cloudy 31 -0.6 21 -6.1 67 67 NNW 8 13 30.42 1030 10 16 0.00 0.00
11:53 am 11:53 Cloudy 32 0 20 -6.7 61 61 VRB 7 11 30.38 1029 10 16 0.00 0.00
12:53 pm 12:53 Mostly Cloudy 33 0.6 19 -7.2 56 56 NNW 8 13 30.37 1028 10 16 0.00 0.00
1:53 pm 13:53 Mostly Cloudy 34 1.1 18 -7.8 52 52 NW 8 13 30.36 1028 10 16 0.00 0.00
2:53 pm 14:53 Partly Cloudy 36 2.2 16 -8.9 44 44 VRB 6 9 30.37 1028 10 16 0.00 0.00
3:53 pm 15:53 Partly Cloudy 35 1.7 16 -8.9 46 46 N 9 15 30.38 1029 10 16 0.00 0.00
4:53 pm 16:53 Cloudy 35 1.7 15 -9.4 44 44 N 7 11 30.41 1030 10 16 0.00 0.00
5:53 pm 17:53 Mostly Cloudy 32 0 17 -8.3 54 54 NNW 5 7 30.43 1031 10 16 0.00 0.00
6:53 pm 18:53 Cloudy 32 0 18 -7.8 56 56 NNW 8 13 30.45 1031 10 16 0.00 0.00
7:53 pm 19:53 Cloudy 33 0.6 18 -7.8 54 54 N 7 11 30.47 1032 10 16 0.00 0.00
8:53 pm 20:53 Clear 31 -0.6 17 -8.3 56 56 NNE 6 9 30.48 1032 10 16 0.00 0.00
9:53 pm 21:53 Clear 29 -1.7 17 -8.3 61 61 NNE 7 11 30.50 1033 10 16 0.00 0.00
10:53 pm 22:53 Clear 28 -2.2 18 -7.8 66 66 NE 6 9 30.51 1033 10 16 0.00 0.00
11:53 pm 23:53 Clear 27 -2.8 18 -7.8 69 69 NNE 5 7 30.52 1034 10 16 0.00 0.00

Powered by AerisWeather